Weather History for Wright-Patt AFB, OH

Change the Weather History Date:

Monday, January 28, 2013

  Actual Average Record
Temperature  
Mean Temperature 42 °F -  
Max Temperature 51 °F 35 °F 64 °F (2002)
Min Temperature 33 °F 18 °F -11 °F (2014)
Degree Days  
Heating Degree Days 23    
Moisture  
Dew Point 42 °F    
Average Humidity 89    
Maximum Humidity 100    
Minimum Humidity 76    
Precipitation  
Precipitation 0.32 in - - ()
Snow  
Snow 0.00 in - - ()
Snow Depth 2.00 in    
Sea Level Pressure  
Sea Level Pressure 30.08 in    
Wind  
Wind Speed 12 mph (SSW)    
Max Wind Speed 23 mph    
Max Gust Speed 32 mph    
Visibility 7 miles    
Events Rain    
Averages and records for this station are not official NWS values.
T = Trace of Precipitation, MM = Missing Value Source: NWS Daily Summary

Daily Weather History Graph

Daily Weather History Graph

Search for Another Location

Airport:

Trip Planner

Search our weather history database for the weather conditions in past years. The results will help you decide how hot, cold, wet, or windy it might be!

Date:

Astronomy

Jan. 28, 2013 Rise Set
Actual Time 7:47 AM EST 5:51 PM EST
Civil Twilight 7:18 AM EST 6:20 PM EST
Nautical Twilight 6:46 AM EST 6:52 PM EST
Astronomical Twilight 6:14 AM EST 7:24 PM EST
Moon 7:44 PM EST (1/28) 8:13 AM EST (1/28)
Length of Visible Light 11h 01m
Length of Day
10h 03m
Full, 98% of the Moon is Illuminated
Jan 28
Full
Feb 3
Last Quarter
Feb 10
New
Feb 17
First Quarter
Feb 25
Full

Hourly Weather History & Observations

Time (EST) Temp. Windchill Dew Point Humidity Pressure Visibility Wind Dir Wind Speed Gust Speed Precip Events Conditions
12:24 AM 33.8 °F 24.8 °F 30.2 °F 87% 30.18 in 6.0 mi SE 12.7 mph - N/A Rain Light Rain
12:45 AM 33.8 °F 27.7 °F 30.2 °F 87% 30.18 in 8.0 mi SSE 6.9 mph - N/A Rain Light Rain
12:55 AM 33.8 °F 26.4 °F 30.7 °F 89% 30.18 in 8.0 mi SSE 9.2 mph - 0.05 in Rain Light Rain
1:16 AM 33.8 °F 24.8 °F 32.0 °F 93% 30.16 in 8.0 mi SE 12.7 mph 18.4 mph N/A Rain Light Rain
1:55 AM 34.7 °F 30.6 °F 31.8 °F 89% 30.16 in 10.0 mi South 4.6 mph - 0.03 in   Overcast
2:55 AM 35.8 °F 31.9 °F 33.4 °F 91% 30.15 in 9.0 mi SSE 4.6 mph - N/A   Overcast
3:33 AM 35.6 °F 31.7 °F 33.8 °F 93% 30.14 in 8.0 mi South 4.6 mph - N/A   Overcast
3:55 AM 37.4 °F 32.1 °F 36.0 °F 95% 30.12 in 8.0 mi SSE 6.9 mph - N/A   Overcast
4:23 AM 39.2 °F 33.0 °F 37.4 °F 93% 30.12 in 10.0 mi South 9.2 mph - N/A   Mostly Cloudy
4:42 AM 39.2 °F 33.6 °F 37.4 °F 93% 30.11 in 10.0 mi SSW 8.1 mph - N/A   Overcast
4:55 AM 39.7 °F 33.7 °F 38.1 °F 94% 30.11 in 10.0 mi SSW 9.2 mph - N/A   Mostly Cloudy
5:01 AM 41.0 °F 35.2 °F 39.2 °F 93% 30.10 in 10.0 mi SSW 9.2 mph - N/A Rain Light Rain
5:18 AM 41.0 °F 33.5 °F 39.2 °F 93% 30.10 in 10.0 mi SSW 13.8 mph - N/A   Mostly Cloudy
5:50 AM 41.0 °F 33.5 °F 37.4 °F 87% 30.09 in 10.0 mi South 13.8 mph - N/A   Overcast
5:55 AM 41.4 °F 33.3 °F 37.6 °F 86% 30.09 in 10.0 mi South 16.1 mph - 0.01 in   Overcast
6:27 AM 42.8 °F 35.1 °F 37.4 °F 81% 30.08 in 10.0 mi South 16.1 mph - N/A   Overcast
6:55 AM 42.3 °F 35.1 °F 37.2 °F 82% 30.07 in 10.0 mi South 13.8 mph - N/A   Overcast
7:55 AM 43.2 °F 35.6 °F 37.2 °F 80% 30.06 in 10.0 mi South 16.1 mph - N/A   Overcast
8:13 AM 42.8 °F 35.4 °F 37.4 °F 81% 30.07 in 10.0 mi SSW 15.0 mph - N/A Rain Light Rain
8:22 AM 42.8 °F 35.1 °F 37.4 °F 81% 30.08 in 5.0 mi SSW 16.1 mph - N/A Rain Rain
8:32 AM 42.8 °F 35.8 °F 37.4 °F 81% 30.09 in 4.0 mi SSW 13.8 mph - N/A Rain Light Rain
8:35 AM 42.8 °F 35.8 °F 37.4 °F 81% 30.09 in 2.5 mi SSW 13.8 mph 23.0 mph N/A Rain Rain
8:36 AM 42.8 °F 35.8 °F 39.2 °F 87% 30.09 in 1.5 mi SSW 13.8 mph 23.0 mph N/A Rain Rain
8:46 AM 42.8 °F 36.2 °F 39.2 °F 87% 30.09 in 4.0 mi SSW 12.7 mph - N/A Rain Light Rain
8:55 AM 43.0 °F 36.4 °F 39.0 °F 86% 30.09 in 5.0 mi SSW 12.7 mph - 0.19 in Rain Light Rain
9:15 AM 42.8 °F 36.2 °F 39.2 °F 87% 30.09 in 5.0 mi South 12.7 mph - N/A Rain Light Rain
9:55 AM 43.7 °F 36.6 °F 40.3 °F 88% 30.08 in 10.0 mi SSW 15.0 mph - 0.03 in   Overcast
10:02 AM 44.6 °F 37.4 °F 41.0 °F 87% 30.08 in 10.0 mi SSW 16.1 mph - N/A Rain Light Rain
10:14 AM 44.6 °F 37.4 °F 41.0 °F 87% 30.08 in 10.0 mi SSW 16.1 mph - N/A   Overcast
10:55 AM 46.6 °F - 41.9 °F 84% 30.08 in 10.0 mi SSW 16.1 mph 24.2 mph 0.00 in   Overcast
11:09 AM 46.4 °F 39.8 °F 42.8 °F 87% 30.08 in 9.0 mi SSW 16.1 mph - N/A Rain Light Rain
11:17 AM 48.2 °F - 42.8 °F 82% 30.08 in 10.0 mi SSW 17.3 mph - N/A   Overcast
11:52 AM 48.2 °F - 42.8 °F 82% 30.08 in 10.0 mi SSW 16.1 mph - N/A   Overcast
11:55 AM 48.2 °F - 42.8 °F 82% 30.07 in 10.0 mi SSW 17.3 mph - 0.01 in   Overcast
12:14 PM 48.2 °F - 42.8 °F 82% 30.03 in 10.0 mi SSW 21.9 mph 32.2 mph N/A   Overcast
12:33 PM 50.0 °F - 42.8 °F 76% 30.06 in 10.0 mi SSW 23.0 mph 28.8 mph N/A   Overcast
12:55 PM 49.5 °F - 43.9 °F 81% 30.05 in 9.0 mi SSW 18.4 mph 29.9 mph N/A   Overcast
12:58 PM 50.0 °F - 44.6 °F 82% 30.05 in 9.0 mi SW 23.0 mph 27.6 mph N/A Rain Light Rain
1:07 PM 50.0 °F - 44.6 °F 82% 30.05 in 10.0 mi SSW 19.6 mph 27.6 mph N/A   Overcast
1:25 PM 48.2 °F - 44.6 °F 87% 30.05 in 5.0 mi SW 17.3 mph - N/A Rain Light Rain
1:30 PM 48.2 °F - 44.6 °F 87% 30.05 in 5.0 mi SW 16.1 mph - N/A Rain Light Rain
1:34 PM 48.2 °F - 44.6 °F 87% 30.05 in 5.0 mi SW 17.3 mph - N/A   Overcast
1:55 PM 49.5 °F - 45.1 °F 85% 30.03 in 5.0 mi SW 17.3 mph 26.5 mph 0.00 in   Overcast
2:09 PM 50.0 °F - 44.6 °F 82% 30.00 in 4.0 mi SW 18.4 mph - N/A   Overcast
2:55 PM 50.4 °F - 46.0 °F 85% 30.02 in 4.0 mi SW 12.7 mph - N/A   Overcast
3:46 PM 50.0 °F - 46.4 °F 87% 30.00 in 5.0 mi SW 15.0 mph - N/A   Overcast
3:55 PM 50.5 °F - 46.4 °F 86% 30.03 in 5.0 mi SW 13.8 mph - N/A   Overcast
4:55 PM 50.5 °F - 47.1 °F 88% 30.03 in 5.0 mi SW 15.0 mph 21.9 mph N/A   Overcast
5:55 PM 50.5 °F - 47.8 °F 90% 30.04 in 5.0 mi SW 13.8 mph - N/A   Overcast
6:55 PM 50.5 °F - 48.4 °F 92% 30.06 in 5.0 mi SW 8.1 mph - N/A   Overcast
7:38 PM 50.0 °F - 50.0 °F 100% 30.04 in 4.0 mi SSW 11.5 mph - N/A   Overcast
7:55 PM 50.9 °F - 49.5 °F 95% 30.06 in 4.0 mi SSW 9.2 mph - N/A   Overcast
8:07 PM 50.0 °F - 48.2 °F 94% 30.07 in 2.0 mi South 9.2 mph - N/A   Overcast
8:30 PM 50.0 °F - 50.0 °F 100% 30.06 in 2.0 mi South 11.5 mph - N/A   Overcast
8:55 PM 50.0 °F - 49.6 °F 99% 30.06 in 2.0 mi South 11.5 mph - N/A   Overcast
9:55 PM 50.2 °F - 50.0 °F 99% 30.06 in 3.0 mi South 9.2 mph - N/A   Mostly Cloudy
10:11 PM 50.0 °F - 50.0 °F 100% 30.06 in 2.0 mi South 8.1 mph - N/A Rain Light Rain
10:32 PM 50.0 °F - 50.0 °F 100% 30.05 in 1.5 mi South 9.2 mph - N/A   Overcast
10:55 PM 50.5 °F - 50.5 °F 100% 30.05 in 1.5 mi South 9.2 mph - 0.00 in   Overcast
11:06 PM 50.0 °F - 50.0 °F 100% 30.06 in 2.0 mi SSW 10.4 mph - N/A   Overcast
11:19 PM 51.8 °F - 50.0 °F 94% 30.05 in 2.5 mi SSW 8.1 mph - N/A   Overcast
11:55 PM 51.1 °F - 51.1 °F 100% 30.06 in 2.5 mi SSW 8.1 mph - N/A   Overcast